GW0202 Weather Reports


time (UTC)temp
F
wind
direction
speed
knots
gust
knots
rain 1hr
in
rain 24hr
in
rain mn
in
humidity
%
barometer
mb
20260504231543 59 326 0.0 0.9 0.00 0.04 0.04 66 1005.6
20260504231039 59 1 0.0 0.9 0.00 0.04 0.04 66 1005.6
20260504230535 61 151 0.0 0.9 0.00 0.04 0.04 60 1005.5
20260504230035 63 122 0.0 0.9 0.00 0.04 0.04 57 1005.5
20260504225531 64 6 0.0 1.7 0.00 0.04 0.04 55 1005.4
20260504225028 64 38 0.9 1.7 0.00 0.04 0.04 51 1005.4
20260504224525 64 64 1.7 1.7 0.00 0.04 0.04 51 1005.4
20260504224022 64 50 1.7 2.6 0.00 0.04 0.04 52 1005.5
20260504223519 64 200 1.7 3.5 0.00 0.04 0.04 51 1005.5
20260504223015 65 48 1.7 2.6 0.00 0.04 0.04 51 1005.4
20260504222512 66 1 0.0 1.7 0.00 0.04 0.04 49 1005.5
20260504222009 65 244 0.9 3.5 0.00 0.04 0.04 52 1005.5
20260504221506 64 279 0.0 3.5 0.00 0.04 0.04 52 1005.6
20260504221003 65 231 3.5 3.5 0.00 0.04 0.04 50 1005.6
20260504220459 64 81 0.9 4.3 0.00 0.04 0.04 53 1005.4
20260504215956 64 196 1.7 3.5 0.00 0.04 0.04 51 1005.5
20260504215453 64 238 0.9 3.5 0.00 0.04 0.04 53 1005.6
20260504214950 64 9 1.7 5.2 0.00 0.04 0.04 52 1005.5
20260504214446 64 228 1.7 7.8 0.00 0.04 0.04 52 1005.3
20260504213943 64 114 0.0 5.2 0.00 0.04 0.04 54 1005.4
20260504213439 64 309 2.6 4.3 0.00 0.04 0.04 53 1005.5
20260504212937 64 71 1.7 4.3 0.00 0.04 0.04 53 1005.4
20260504212432 62 340 3.5 3.5 0.00 0.04 0.04 55 1005.5
20260504211930 62 332 1.7 4.3 0.00 0.04 0.04 56 1005.6
20260504211426 62 303 3.5 3.5 0.00 0.04 0.04 56 1005.6
20260504210924 62 356 2.6 4.3 0.00 0.04 0.04 55 1005.6
20260504210420 64 0 1.7 6.1 0.00 0.04 0.04 54 1005.5
20260504205918 64 240 3.5 7.8 0.00 0.04 0.04 54 1005.4
20260504205415 64 201 1.7 10.4 0.00 0.04 0.04 54 1005.4
20260504204913 63 286 4.3 9.6 0.00 0.04 0.04 53 1005.4
20260504204411 64 299 4.3 6.1 0.00 0.04 0.04 55 1005.3
20260504203911 64 265 6.1 7.8 0.00 0.04 0.04 54 1005.4
20260504203407 63 178 3.5 7.0 0.00 0.04 0.04 55 1005.5
20260504202903 62 335 7.0 12.2 0.00 0.04 0.04 55 1005.4
20260504202400 62 233 4.3 4.3 0.00 0.04 0.04 57 1005.5
20260504201856 61 125 3.5 5.2 0.00 0.04 0.04 58 1005.5
20260504201354 62 253 5.2 7.8 0.00 0.04 0.04 57 1005.4
20260504200851 61 93 3.5 7.8 0.00 0.04 0.04 58 1005.2
20260504200348 61 353 4.3 15.6 0.00 0.04 0.04 59 1005.5
20260504195844 62 246 8.7 11.3 0.00 0.04 0.04 57 1005.0
20260504195340 63 212 5.2 10.4 0.00 0.04 0.04 55 1005.2
20260504194837 63 282 2.6 8.7 0.00 0.04 0.04 59 1005.1
20260504194333 63 233 3.5 6.1 0.00 0.04 0.04 57 1005.3
20260504193829 62 275 4.3 9.6 0.00 0.04 0.04 59 1005.4
20260504193327 62 196 7.8 11.3 0.00 0.04 0.04 58 1005.3
20260504192825 62 310 9.6 11.3 0.00 0.04 0.04 61 1005.4
20260504192323 61 327 2.6 15.6 0.00 0.04 0.04 62 1005.6
20260504191821 61 331 8.7 14.8 0.00 0.04 0.04 62 1005.5
20260504191318 61 235 4.3 7.0 0.00 0.04 0.04 63 1005.6
20260504190814 61 0 4.3 7.8 0.00 0.04 0.04 65 1005.5
20260504190310 60 240 0.9 6.1 0.00 0.04 0.04 67 1005.7
20260504185806 59 312 3.5 8.7 0.00 0.04 0.04 68 1005.7
20260504185304 59 325 2.6 9.6 0.00 0.04 0.04 68 1005.6
20260504184759 59 78 0.9 5.2 0.00 0.04 0.04 70 1005.7
20260504184255 58 290 2.6 9.6 0.00 0.04 0.04 70 1005.8
20260504183751 59 257 3.5 8.7 0.00 0.04 0.04 71 1005.8
20260504183248 59 257 0.0 12.2 0.00 0.04 0.04 74 1006.0
20260504182747 59 248 2.6 3.5 0.00 0.04 0.04 74 1005.9
20260504182243 58 25 2.6 3.5 0.00 0.04 0.04 78 1005.9
20260504181741 55 341 3.5 5.2 0.00 0.04 0.04 80 1005.9
20260504181238 55 31 0.9 2.6 0.00 0.04 0.04 81 1005.9
20260504180737 55 130 0.0 4.3 0.00 0.04 0.04 84 1005.9
20260504180236 53 209 2.6 4.3 0.00 0.04 0.04 83 1006.0
20260504175733 54 10 1.7 5.2 0.00 0.04 0.04 85 1006.2
20260504175229 53 196 1.7 4.3 0.00 0.04 0.04 88 1006.2
20260504174727 52 46 1.7 3.5 0.00 0.04 0.04 90 1006.2
20260504174225 51 72 1.7 3.5 0.00 0.04 0.04 91 1006.1
20260504173721 51 243 0.9 3.5 0.02 0.04 0.04 93 1006.2
20260504173218 51 180 0.0 2.6 0.02 0.04 0.04 92 1006.3
20260504172715 51 167 1.7 1.7 0.02 0.04 0.04 92 1006.3
20260504172211 51 0 0.0 1.7 0.02 0.04 0.04 91 1006.3
20260504171708 51 93 0.9 4.3 0.02 0.03 0.03 90 1006.3
20260504171205 51 49 0.9 3.5 0.05 0.03 0.03 91 1006.2
20260504170701 51 278 1.7 2.6 0.07 0.03 0.03 89 1006.4
20260504170159 52 279 2.6 2.6 0.07 0.02 0.02 87 1006.3
20260504160118 56 220 5.2 7.0 0.00 0.00 0.00 61 1005.1
20260504151045 54 121 0.9 5.2 0.00 0.00 0.00 60 1005.9
20260504150543 54 132 1.7 4.3 0.00 0.00 0.00 61 1006.0
20260504141009 52 79 0.0 5.2 0.00 0.00 0.00 57 1006.8
20260504140505 51 74 2.6 4.3 0.00 0.00 0.00 59 1006.8
20260504130430 49 267 1.7 1.7 0.00 0.00 0.00 59 1008.0
20260504110316 40 109 1.7 1.7 0.00 0.00 0.00 82 1008.2
20260504100234 30 185 1.7 2.6 0.00 0.00 0.00 98 1007.9
20260504081627 32 130 0.9 2.6 0.00 0.00 0.00 93 1007.7
20260504081123 32 156 0.0 0.9 0.00 0.00 0.00 94 1007.6
20260504080620 31 44 0.0 1.7 0.00 0.00 0.00 96 1007.6
20260504080116 31 228 0.0 0.0 0.00 0.00 0.00 96 1007.6
20260504050432 35 31 0.0 1.7 0.00 0.00 0.00 89 1007.3
20260504045930 35 185 0.0 0.9 0.00 0.00 0.00 89 1007.2
20260504045425 35 132 0.9 2.6 0.00 0.00 0.00 89 1007.3
20260504044921 34 44 1.7 1.7 0.00 0.00 0.00 90 1007.3
20260504044420 34 17 0.9 1.7 0.00 0.00 0.00 91 1007.1
20260504043917 35 35 1.7 1.7 0.00 0.00 0.00 91 1007.2
20260504043413 34 320 0.0 1.7 0.00 0.00 0.00 91 1007.1
20260504042911 35 78 0.9 1.7 0.00 0.00 0.00 90 1007.2
20260504042408 35 254 0.0 0.9 0.00 0.00 0.00 89 1007.2
20260504041904 36 224 0.0 1.7 0.00 0.00 0.00 84 1007.3
20260504041400 35 320 1.7 1.7 0.00 0.00 0.00 85 1007.4
20260504040856 36 327 0.0 0.9 0.00 0.00 0.00 84 1007.1
20260504040354 36 272 0.0 0.9 0.00 0.00 0.00 82 1007.1
20260504035849 37 21 1.7 1.7 0.00 0.28 0.28 81 1007.0
20260504035348 37 10 0.0 1.7 0.00 0.28 0.28 81 1007.0
20260504034844 37 24 0.9 1.7 0.00 0.28 0.28 80 1007.2
20260504034341 37 44 0.0 1.7 0.00 0.28 0.28 80 1007.0
20260504033838 37 27 0.9 1.7 0.00 0.28 0.28 79 1007.0
20260504033337 37 77 0.0 0.9 0.00 0.28 0.28 82 1006.8
20260504032832 38 315 0.0 1.7 0.00 0.28 0.28 81 1006.9
20260504032330 38 48 0.0 0.0 0.00 0.28 0.28 79 1006.7
20260504031827 39 243 0.0 0.9 0.00 0.28 0.28 75 1006.8
20260504031324 40 304 0.0 1.7 0.00 0.28 0.28 73 1006.9
20260504030820 41 283 0.0 1.7 0.00 0.28 0.28 68 1006.9
20260504030318 41 208 0.0 1.7 0.00 0.28 0.28 65 1006.6
20260504025814 41 330 0.0 5.2 0.00 0.28 0.28 65 1006.6
20260504025311 41 288 0.9 1.7 0.00 0.28 0.28 67 1006.6
20260504024807 41 257 0.0 3.5 0.00 0.28 0.28 66 1006.5
20260504024304 41 22 0.0 1.7 0.00 0.28 0.28 67 1006.7
20260504023800 41 107 0.0 0.9 0.00 0.28 0.28 64 1006.6
20260504023257 41 3 0.9 1.7 0.00 0.28 0.28 65 1006.6
20260504022753 42 298 1.7 2.6 0.00 0.28 0.28 64 1006.5
20260504022249 41 355 1.7 2.6 0.00 0.28 0.28 66 1006.6
20260504021746 41 294 2.6 3.5 0.00 0.28 0.28 67 1006.6
20260504021244 41 315 0.0 0.9 0.00 0.28 0.28 70 1006.4
20260504020741 41 64 0.9 0.9 0.00 0.28 0.28 68 1006.5
20260504020237 42 11 0.9 1.7 0.00 0.28 0.28 63 1006.6
20260504015733 42 24 1.7 1.7 0.00 0.28 0.28 65 1006.5
20260504015230 43 329 0.9 3.5 0.00 0.28 0.28 60 1006.4
20260504014725 43 308 0.0 1.7 0.00 0.28 0.28 61 1006.4
20260504014222 44 297 0.0 8.7 0.00 0.28 0.28 57 1006.2
20260504013720 44 304 0.0 2.6 0.00 0.28 0.28 58 1006.4
20260504013218 44 291 0.0 1.7 0.00 0.28 0.28 57 1006.2
20260504012714 45 248 0.9 2.6 0.00 0.28 0.28 55 1006.4
20260504012212 45 10 0.9 7.0 0.00 0.28 0.28 54 1006.3
20260504011709 45 203 1.7 6.1 0.00 0.28 0.28 54 1006.2
20260504011205 45 354 3.5 6.1 0.00 0.28 0.28 55 1006.1
20260504010701 45 131 0.0 1.7 0.00 0.28 0.28 55 1005.9
20260504010157 45 38 2.6 3.5 0.00 0.28 0.28 54 1005.8
20260504005654 46 9 1.7 7.8 0.00 0.28 0.28 52 1005.8
20260504005151 45 280 1.7 4.3 0.00 0.28 0.28 54 1005.6
20260504004649 45 321 1.7 3.5 0.00 0.28 0.28 54 1005.7
20260504004146 45 340 0.0 1.7 0.00 0.28 0.28 53 1005.6
20260504003642 45 271 1.7 2.6 0.00 0.28 0.28 53 1005.4
20260504003139 46 25 2.6 2.6 0.00 0.28 0.28 53 1005.5
20260504002635 46 332 0.0 3.5 0.00 0.28 0.28 52 1005.5
20260504002133 46 28 2.6 5.2 0.00 0.28 0.28 52 1005.4
20260504001631 46 42 1.7 5.2 0.00 0.28 0.28 51 1005.3
20260504001126 46 350 2.6 5.2 0.00 0.28 0.28 52 1005.3
20260504000624 47 358 4.3 5.2 0.00 0.28 0.28 50 1004.9
20260504000121 47 44 1.7 5.2 0.00 0.28 0.28 50 1005.0
20260503235620 47 5 1.7 5.2 0.00 0.28 0.28 50 1004.9
20260503235116 47 24 1.7 12.2 0.00 0.28 0.28 51 1004.9
20260503234614 47 286 3.5 3.5 0.00 0.28 0.28 50 1004.8
20260503234112 48 3 3.5 13.9 0.00 0.28 0.28 48 1004.6
20260503233608 48 332 6.1 12.2 0.00 0.28 0.28 49 1004.8
20260503233104 48 344 4.3 10.4 0.00 0.28 0.28 48 1004.7
20260503232601 48 281 2.6 9.6 0.00 0.28 0.28 49 1004.6
20260503232058 48 335 4.3 12.2 0.00 0.28 0.28 48 1004.4